Location: Monrovia
(34.7865°N, 86.7139°W)
Time: 22:07:30
(UTC+00:00)

Cosmos 1624 Rocket - Pass Details

Date: 14 July 2020
Orbit: 758 x 783 km, 74.0° (Epoch: 08 August)

Event Time Altitude Azimuth Distance (km) Brightness Sun altitude
Rises 03:25:41 0° 346° (NNW) 3,228 8.3 -23.7°
Reaches altitude 10° 03:28:06 10° 349° (N) 2,296 7.3 -24.0°
Maximum altitude 03:33:16 65° 71° (ENE) 832 4.0 -24.6°
Enters shadow 03:33:34 64° 93° (E) 841 3.9 -24.6°
